Flag for Mauritania Weather past 2 weeks in Nouadhibou, Mauritania

Now
73 °F

Clear.


Feels Like: 77 °F
Forecast: N/A
Wind: 16 mph from Northwest

Location: Nouadhibou Airport

Current Time: Feb 28, 2015 at 4:36:38 PM

Latest Report: Feb 28, 2015 at 4:00 PM


Visibility: 5 mi

Pressure: 30.09 "Hg

Humidity: 57%

Dew point: 57 °F

Location of NouadhibouLocation

Historic Weather in Nouadhibou — Graph

°F

Nouadhibou temperature yesterday

Maximum temperature yesterday: 84 °F (at 3:00 PM)
Minimum temperature yesterday: 61 °F (at 7:00 AM)
Average temperature yesterday: 71 °F

Past Weeks' High & Low Weather Summary

 TemperatureHumidityPressure
High88 °F (Feb 26, 2:00 PM)88% (Feb 20, 6:00 AM)30.21 "Hg (Feb 20, 6:00 AM)
Low55 °F (Feb 18, 8:00 AM)14% (Feb 27, 1:00 PM)29.95 "Hg (Feb 18, 5:00 AM)
Average66 °F63%30.08 "Hg
* Reported Feb 13 3:00 PM — Feb 28 3:00 PM, Nouadhibou, Weather by CustomWeather, © 2015

Note: Actual official high and low records may vary slightly from our data, if they occured in-between our weather recording intervals... More about our weather records

Advertising

Nouadhibou weather history for previous 24 hours

 ConditionsComfort  
Time TempWeatherWind HumidityBarometerVisibility
3:00 PM
Sat, Feb 28
73 °FClear.14 mph53%30.12 "Hg5 mi
2:00 PM77 °FClear.12 mph44%30.12 "Hg5 mi
1:00 PM79 °FClear.12 mph32%30.18 "Hg5 mi
12:00 PM72 °FClear.14 mph50%30.21 "Hg5 mi
11:00 AM68 °FClear.18 mph56%30.21 "Hg5 mi
10:00 AM64 °FClear.21 mph68%30.21 "Hg5 mi
9:00 AM63 °FClear.18 mph73%30.18 "Hg5 mi
8:00 AM61 °FClear.18 mph72%30.15 "Hg5 mi
7:00 AM61 °FClear.18 mph72%30.12 "Hg5 mi
5:00 AM61 °FClear.16 mph72%30.09 "Hg5 mi
4:00 AM63 °FClear.16 mph73%30.09 "Hg4 mi
3:00 AM63 °FClear.17 mph73%30.09 "Hg4 mi
2:00 AM63 °FClear.16 mph68%30.12 "Hg4 mi
1:00 AM64 °FClear.18 mph68%30.12 "Hg4 mi
11:00 PM
Fri, Feb 27
66 °FClear.18 mph64%30.12 "Hg4 mi
10:00 PM66 °FClear.18 mph64%30.12 "Hg4 mi
9:00 PM68 °FClear.16 mph60%30.09 "Hg4 mi
8:00 PM72 °FSandstorm.16 mph57%30.07 "Hg4 mi
7:00 PM73 °FLow level haze.12 mph53%30.07 "Hg2 mi
6:00 PM81 °FLow level haze.14 mph28%30.04 "Hg2 mi
5:00 PM84 °FLow level haze.14 mph23%30.04 "Hg2 mi
4:00 PM84 °FLow level haze.9 mph22%30.04 "Hg1 mi
Weather by CustomWeather, © 2015

See weather overviewHow to use our weather pages